sat.trackr.live / text

‹ back to catalog

STARLINK-4793

NORAD 53867 · 2022-114BB

PAYLOAD ACTIVE UNKNOWN

§ Identity

Operator
Country
US
Launch date
2022-09-19
Launch site
AFETR
Launch vehicle
Mass (kg)
RCS (m²)

Purposes: comms

External: N2YO · Heavens-Above · Gunter

§ Orbital elements

Epoch: 2026-05-25T04:00:03.998880Z

Period
93.92 min
Inclination
53.2168°
Eccentricity
0.0000747
Mean motion
15.33272959 rev/d
Perigee alt
465.5 km
Apogee alt
466.6 km
Semi-major
6,844.2 km
B*
-2.2850e-2
RAAN
285.9341°
Arg perigee
72.9328°
Mean anomaly
57.3150°
Rev number
572

§ Raw data

STARLINK-47931 53867U 22114BB  26145.16671295 -.00689844  00000+0 -22850-1 0  99922 53867  53.2168 285.9341 0000747  72.9328  57.3150 15.33272959  5728

JSON: /api/v1/satellites/53867 · /tle

For live sub-satellite position, see the globe view (requires WebGL).

§ Visibility from observer

Set your observer location to see the next 7 days of passes ≥ 10°. The values pass through the URL so the page stays shareable.

No JS? Fill the form by hand. The geolocation button needs JavaScript.